Regional Weather Roundup
Issued by NWS

Home | Current Version | Previous Version | Graphics & Text | Print | Product List | Glossary On
Versions: 1 2 3 4 5 6 7 8 9 10 11 12 13 14 15 16 17 18 19 20 21 22 23 24 25 26 27
000
ASUS45 KPSR 212110
RWRAZ

ARIZONA HOURLY REGIONAL WEATHER ROUNDUP
NATIONAL WEATHER SERVICE PHOENIX AZ
200 PM MST SAT OCT 21 2017

NOTE: FAIR INDICATES FEW OR NO CLOUDS BELOW 12,000 FEET WITH NO
SIGNIFICANT WEATHER AND/OR OBSTRUCTIONS TO VISIBILITY.

AZZ001>003-036-212200-
NORTHWEST ARIZONA

CITY           SKY/WX    TMP DP  RH WIND       PRES   REMARKS
BULLHEAD CITY  SUNNY     77  12   8 NW20G29   30.07F
KINGMAN        SUNNY     70  12  10 N12       30.15F
$$

AZZ004>008-015-016-018-212200-
NORTH CENTRAL ARIZONA

CITY           SKY/WX    TMP DP  RH WIND       PRES   REMARKS
GRAND CANYON   SUNNY     59   5  11 SW12      30.21S
WILLIAMS       SUNNY     59   0   9 VRB3      30.22S
PRESCOTT       SUNNY     66   8  10 VRB7      30.15F
FLAGSTAFF      SUNNY     61   0   8 W9        30.20S
PAYSON         SUNNY     68  14  12 SW9       30.14S
PAGE           SUNNY     60  15  17 NE7       30.17F
$$

AZZ009>014-017-212200-
NORTHEAST ARIZONA

CITY           SKY/WX    TMP DP  RH WIND       PRES   REMARKS
WINSLOW        SUNNY     66  16  14 NW13G20   30.15F
SAINT JOHNS    SUNNY     64  22  20 W20G25    30.15R
WINDOW ROCK    SUNNY     58   2  10 W14       30.18R
SHOW LOW       SUNNY     61  19  20 N10       30.20S
$$

AZZ540-542>544-546-548-212200-
GREATER PHOENIX AREA

CITY           SKY/WX    TMP DP  RH WIND       PRES   REMARKS
PHOENIX        MOSUNNY   82  45  27 SW5       29.95F
BUCKEYE        SUNNY     81  41  24 S6        29.98F
GLENDALE       MOSUNNY   82  43  24 CALM      29.98F
LUKE AFB       SUNNY     81  42  24 S3        29.95F
DEER VALLEY    CLOUDY    80  44  27 SW8       29.97F
SCOTTSDALE     SUNNY     80  43  26 SW7       29.98F
MESA-FALCON    MOSUNNY   79  45  29 W6        29.98F
MESA-GATEWAY   MOSUNNY   79  45  29 W5        29.98F
CHANDLER       SUNNY     81  43  26 W6        29.97F
$$

AZZ539-553-212200-
SOUTHWEST MARICOPA COUNTY AND PINAL COUNTY

CITY           SKY/WX    TMP DP  RH WIND       PRES   REMARKS
CASA GRANDE    NOT AVBL
GILA BEND      MOSUNNY   79  45  29 CALM      29.96F
$$

AZZ503-504-507>509-212200-
SOUTHEAST ARIZONA

CITY           SKY/WX    TMP DP  RH WIND       PRES   REMARKS
TUCSON         SUNNY     80  43  26 W6        30.03F
DAVIS-MONTHAN  SUNNY     81  38  21 CALM      30.01F
NOGALES        SUNNY     79  40  24 W8        30.05F
SIERRA VISTA   SUNNY     76  33  20 NW9       30.10F
DOUGLAS        SUNNY     78  35  21 N10       30.06S
SAFFORD        SUNNY     80  31  16 NW16G31   29.98F
$$

AZZ532-212200-
SOUTHWEST ARIZONA

CITY           SKY/WX    TMP DP  RH WIND       PRES   REMARKS
YUMA           SUNNY     86  19   8 N10G22    29.97F
$$

CAZ041-043-047-048-061-525>527-560>570-212200-
SOUTHERN CALIFORNIA

CITY           SKY/WX    TMP DP  RH WIND       PRES   REMARKS
DOWNTOWN L.A.  SUNNY     76  53  44 W3        30.02F
L.A. AIRPORT   SUNNY     71  51  49 W14       30.03F
SAN DIEGO      MOSUNNY   72  56  57 NW14      30.01F
BURBANK        SUNNY     77  39  25 VRB3      30.02F
ONTARIO        MOSUNNY   76  44  32 VRB5      30.03F
RIVERSIDE      SUNNY     82  26  13 N12G23    30.02F
PALM SPRINGS   SUNNY     85  21   9 VRB3      30.04F
EL CENTRO NAS  MOSUNNY   84  24  11 NE7       30.02F
IMPERIAL       SUNNY     84  28  13 N7        30.00F
BLYTHE         SUNNY     85  16   7 NW16G25   30.01F
NEEDLES        SUNNY     81   9   6 NE22      30.07F
$$

NVZ020-UTZ003-212200-
SOUTHERN NEVADA-UTAH

CITY           SKY/WX    TMP DP  RH WIND       PRES   REMARKS
LAS VEGAS      MOSUNNY   69  15  12 CALM      30.16F
SALT LAKE CITY PTSUNNY   53  20  27 NW9       30.24R
$$

NMZ009-TXZ055-212200-
NEW MEXICO-WEST TEXAS

CITY           SKY/WX    TMP DP  RH WIND       PRES   REMARKS
ALBUQUERQUE    MOSUNNY   65  20  17 N12       30.08R
EL PASO        MOSUNNY   78  37  22 W10G20    29.99S
$$


........................KEY........................
SKY/WX - SKY CONDITION/WEATHER
TMP    - TEMPERATURE IN FAHRENHEIT
DP     - DEW POINT IN FAHRENHEIT
RH     - RELATIVE HUMIDITY IN PERCENT
WIND   - DIRECTION AND SPEED IN MILES PER HOUR (MPH)
VRB    - VARIABLE WIND DIRECTION
PRES   - MEAN SEA LEVEL PRESSURE IN INCHES OF MERCURY
         F - FALLING PRESSURE   R - RISING PRESSURE
         S - STEADY PRESSURE
VSB    - VISIBILITY IN MILES
HX     - HEAT INDEX IN FAHRENHEIT
WCI    - WIND CHILL INDEX IN FAHRENHEIT
TC     - TEMPERATURE IN CELSIUS WHICH IS ALSO KNOWN AS
         TEMPERATURE IN CENTIGRADE
AFB    - AIR FORCE BASE
         LUKE AFB IS LUKE AIR FORCE BASE
         DAVIS-MONTHAN IS DAVIS-MONTHAN AIR FORCE BASE
NAS    - NAVAL AIR STATION
         EL CENTRO NAS IS EL CENTRO NAVAL AIR STATION
N/A    - NOT AVAILABLE





USA.gov is the U.S. government's official web portal to all federal, state and local government web resources and services.